Location: Unspecified
(49.8670°N, 0.0000°E)
Time: 00:29:12
(UTC+00:00)

S-56A Canister/Altair - Pass Details

Date: 25 June 2019
Orbit: 632 x 2500 km, 38.9° (Epoch: 21 July)

Event Time Altitude Azimuth Distance (km) Brightness Sun altitude
Rises 20:10:18 0° 266° (W) 3,918 12.0 -0.5°
Reaches altitude 10° 20:15:21 10° 237° (WSW) 2,549 10.5 -1.2°
Maximum altitude 20:17:15 12° 217° (SW) 2,299 10.0 -1.4°
Drops below altitude 10° 20:19:01 10° 197° (SSW) 2,296 9.8 -1.6°
Sets 20:22:53 0° 164° (SSE) 3,013 10.1 -2.1°
